User: anonymous   Login
Location: Nairn
(57.5833°N, 3.8667°W)
Time: 15:52:31
(UTC+00:00)
Language:

UNK - Orbit

View from above orbital plane
View from above orbital plane
View from above satellite
View from above satellite

Ground track
Ground track

The orbit data is extracted from the following two-line orbital elements,

1 27940U 03042B   20292.89525135 +.00000065 +00000-0 +21029-4 0  9993
2 27940 098.1298 062.2047 0014551 026.4477 333.7466 14.65187701911506
Epoch (UTC): 18 October 2020 21:29:09
Eccentricity: 0.0014551
inclination: 98.1298°
perigee height: 666 km
apogee height: 687 km
right ascension of ascending node: 62.2047°
argument of perigee: 26.4477°
revolutions per day: 14.65187701
mean anomaly at epoch: 333.7466°
orbit number at epoch: 91150

The dashed part of the orbit path shows where the satellite is in the earth's shadow,  

DLR